Home   Weather   41°55'N, 91°40'W   Past weeks
Flag for USA

Past Weather in 41°55'N, 91°40'W, USA — Yesterday and Last 2 Weeks

Now
51 °F

Sunny.


Feels Like: 51 °F
Forecast: 73 / 51 °F
Wind: No wind

Location: Cedar Rapids Municipal Airport

Current Time: Sep 23, 2019 at 8:26:53 am

Latest Report: Sep 23, 2019 at 7:52 am


Visibility: 9 mi

Pressure: 30.06 "Hg

Humidity: 100%

Dew Point: 51 °F

Location of 41°55'N, 91°40'WLocation

Past Weather in 41°55'N, 91°40'W — Graph

°F

41°55'N, 91°40'W Temperature Yesterday

Maximum temperature yesterday: 71 °F (at 12:21 am)
Minimum temperature yesterday: 55 °F (at 11:52 pm)
Average temperature yesterday: 67 °F

High & Low Weather Summary for the Past Weeks

 TemperatureHumidityPressure
High86 °F (Sep 11, 3:52 pm)100% (Sep 8, 6:27 am)30.18 "Hg (Sep 8, 6:27 am)
Low49 °F (Sep 23, 4:52 am)55% (Sep 16, 1:52 pm)29.80 "Hg (Sep 22, 3:52 pm)
Average70 °F89%30.00 "Hg
* Reported Sep 8 6:27 am — Sep 23 6:52 am, 41°55'N, 91°40'W. Weather by CustomWeather, © 2019

Note: Actual official high and low records may vary slightly from our data, if they occured in-between our weather recording intervals... More about our weather records

Advertising

41°55'N, 91°40'W Weather History for the Previous 24 Hours

Scroll right to see more
 ConditionsComfort  
Time TempWeatherWind HumidityBarometerVisibility
6:52 am
Mon, Sep 23
49 °FClear.6 mph100%30.05 "Hg7 mi
6:14 am49 °FFog.6 mph100%30.03 "Hg2 mi
6:07 am50 °FFog.7 mph100%30.03 "Hg1 mi
5:52 am50 °FFog.7 mph100%30.02 "Hg6 mi
4:52 am49 °FClear.5 mph100%30.01 "Hg8 mi
3:52 am50 °FClear.6 mph100%29.99 "Hg7 mi
2:52 am51 °FClear.7 mph100%29.98 "Hg7 mi
1:52 am52 °FFog.6 mph100%29.98 "Hg5 mi
12:52 am54 °FClear.5 mph100%29.96 "Hg8 mi
11:52 pm
Sun, Sep 22
55 °FClear.6 mph100%29.95 "Hg10 mi
10:52 pm57 °FClear.9 mph100%29.94 "Hg10 mi
9:52 pm59 °FPassing clouds.7 mph96%29.93 "Hg10 mi
8:56 pm61 °FOvercast.15 mph90%29.91 "Hg10 mi
7:52 pm62 °FMostly cloudy.14 mph93%29.88 "Hg10 mi
6:52 pm67 °FMostly cloudy.8 mph97%29.84 "Hg10 mi
5:52 pm68 °FMore clouds than sun.8 mph90%29.82 "Hg10 mi
4:52 pm68 °FMostly cloudy.7 mph96%29.81 "Hg10 mi
3:52 pm69 °FMore clouds than sun.5 mph87%29.80 "Hg10 mi
3:25 pm68 °FFog.No wind93%29.82 "Hg10 mi
3:13 pm67 °FLight rain. Fog.No wind97%29.82 "Hg2 mi
2:52 pm68 °FLow clouds.3 mph90%29.82 "Hg10 mi
1:52 pm67 °FPartly sunny.7 mph97%29.81 "Hg10 mi
1:04 pm66 °FRain. Fog.6 mph100%29.88 "Hg3 mi
12:54 pm66 °FLight rain. Fog.7 mph100%29.88 "Hg3 mi
12:23 pm65 °FHeavy rain. Fog.8 mph100%29.88 "Hg2 mi
11:43 am66 °FHeavy rain. Fog.9 mph100%29.88 "Hg1 mi
10:54 am67 °FLight rain. Low clouds.6 mph97%29.87 "Hg7 mi
9:55 am66 °FRain. Fog.6 mph96%29.89 "Hg4 mi
9:20 am65 °FLight rain. Fog.No wind100%29.86 "Hg6 mi
8:52 am65 °FLight rain. Fog.6 mph100%29.86 "Hg6 mi
Weather by CustomWeather, © 2019

See weather overview